RH
38 33 32 37 42 44 45 44 48 52 52 49 55 56 49 49 50 49 46 42 37 37 36 40 37 46 42 41 41 38 36 33 36 37 37 34 31 25
43 43 40 39 37 36 34 39 38 38 38 37 38 40 37 35 37 41 35 30 33 38 34 55 47 44 41 42 38 37 35 31 36 35 36 35 32 31
43 40 40 39 42 44 43 42 40 37 36 38 31 31 32 33 39 35 31 31 37 41 40 47 45 41 39 37 38 36 34 31 38 35 35 35 32 33
48 47 46 44 40 40 42 39 37 37 35 33 31 28 27 28 30 30 35 45 48 47 44 47 43 45 48 48 51 52 41 40 37 46 38 40 39 40
58 59 61 61 58 61 60 53 48 49 45 46 47 49 48 47 47 49 50 48 47 46 45 45 47 50 54 58 57 59 56 59 56 52 42 41 44 43
76 76 74 74 79 77 71 64 62 60 61 63 60 61 60 56 55 54 53 55 55 53 52 54 56 60 59 58 62 65 65 64 63 66 68 55 50 44
78 85 88 87 84 80 82 82 78 80 80 80 77 73 68 67 70 70 68 65 62 60 63 65 67 65 63 62 61 60 59 58 61 59 60 62 59 65
84 87 89 90 89 86 85 84 83 83 83 82 81 83 81 79 78 79 79 74 73 74 73 75 75 71 70 68 66 64 63 64 63 61 59 58 53 51
81 89 91 91 89 86 87 82 79 78 72 71 73 73 78 77 77 75 73 72 74 75 77 78 77 76 73 73 70 65 65 65 67 67 65 63 64 65
87 90 91 91 92 91 87 80 77 74 73 75 74 72 73 73 72 70 68 68 70 72 74 73 73 75 71 71 67 64 65 63 65 65 65 67 68 66
90 88 84 85 88 89 88 87 85 81 79 74 72 70 69 68 69 71 72 74 72 74 74 76 74 76 71 61 59 58 54 51 53 54 58 59 60 62
77 72 76 85 86 82 71 68 70 77 78 76 72 68 68 70 72 72 74 74 74 72 71 73 72 64 60 57 51 44 44 43 37 37 35 39 43 49
62 64 66 69 68 66 63 65 69 68 67 70 71 72 72 69 64 63 60 61 64 61 49 41 40 41 39 35 32 32 30 26 22 20 18 16 16 18
76 77 76 76 73 70 66 65 66 69 67 64 66 60 55 50 48 38 29 23 22 20 19 18 17 16 16 16 15 15 14 14 14 14 14 13 13 12
71 75 76 74 74 71 70 68 68 67 66 64 55 47 43 40 30 24 21 20 20 19 19 19 19 20 20 20 20 20 19 18 18 17 17 16 15 14
64 66 70 66 64 67 65 67 64 61 55 49 45 40 37 31 26 25 23 22 22 23 23 23 23 23 23 24 24 24 24 24 23 22 21 20 19 18
46 55 59 60 63 63 62 61 61 63 59 52 47 39 33 30 29 28 27 26 26 25 26 28 28 28 29 29 27 26 25 24 23 22 22 21 20 19
48 45 44 47 50 46 49 49 48 47 46 50 48 44 41 38 35 33 32 31 31 32 34 35 34 33 33 31 29 27 26 24 23 22 21 20 20 20
44 43 50 50 49 50 52 54 53 51 50 54 50 47 44 44 43 43 44 43 39 39 37 35 34 32 30 29 28 28 26 25 23 22 21 20 18 18
42 44 48 48 49 50 50 48 48 47 47 45 42 41 41 40 40 39 37 36 35 33 32 31 30 28 24 21 19 18 19 18 18 17 16 15 15 15
37 40 45 49 49 48 46 44 42 41 40 39 38 37 36 35 34 34 33 32 31 28 24 20 19 18 19 19 21 18 18 17 17 16 16 15 14 14
31 33 36 36 35 33 31 28 27 28 28 26 26 25 21 20 20 19 17 16 16 17 18 18 19 19 20 21 23 23 24 22 20 18 19 20 24 23
37 38 38 38 35 31 29 26 22 19 18 17 16 14 14 14 14 15 16 18 19 20 21 22 22 23 23 24 25 27 28 28 28 27 23 20 20 24